Total_Precipitation_Accumulation
0.06 0.06 0.05 0.07 0.05 0.03 0.00 0.00 0.00 0.00 0.00 0.00 0.00 0.00 0.00 0.00 0.00 0.00 0.01 0.01 0.02 0.03 0.05 0.12 0.20 0.26 0.30 0.32 0.31 0.27 0.24 0.23 0.25 0.25 0.27 0.26 0.27 0.30 0.33 0.39 0.42 0.45 0.49 0.49 0.50 0.62 0.65 0.66 0.62
0.05 0.07 0.08 0.08 0.04 0.01 0.00 0.00 0.00 0.00 0.00 0.00 0.00 0.00 0.00 0.00 0.00 0.00 0.01 0.01 0.01 0.01 0.03 0.06 0.16 0.23 0.29 0.30 0.28 0.26 0.24 0.22 0.22 0.23 0.26 0.28 0.29 0.30 0.34 0.41 0.45 0.47 0.55 0.58 0.63 0.69 0.68 0.64 0.57
0.09 0.10 0.11 0.08 0.03 0.00 0.00 0.00 0.00 0.00 0.00 0.00 0.00 0.00 0.00 0.00 0.00 0.00 0.00 0.00 0.00 0.01 0.02 0.05 0.14 0.22 0.27 0.29 0.29 0.28 0.24 0.21 0.21 0.24 0.25 0.28 0.30 0.31 0.32 0.35 0.42 0.48 0.57 0.56 0.56 0.62 0.61 0.58 0.54
0.14 0.16 0.12 0.07 0.02 0.00 0.00 0.00 0.00 0.00 0.00 0.00 0.00 0.00 0.00 0.00 0.00 0.00 0.00 0.00 0.00 0.00 0.01 0.04 0.14 0.23 0.25 0.28 0.33 0.33 0.28 0.24 0.24 0.24 0.26 0.28 0.32 0.33 0.33 0.31 0.32 0.36 0.43 0.45 0.49 0.52 0.52 0.51 0.48
0.16 0.17 0.12 0.06 0.01 0.00 0.00 0.00 0.00 0.00 0.00 0.00 0.00 0.00 0.00 0.00 0.00 0.00 0.00 0.00 0.00 0.00 0.01 0.04 0.14 0.23 0.25 0.27 0.32 0.34 0.29 0.26 0.25 0.27 0.30 0.31 0.32 0.33 0.32 0.28 0.27 0.27 0.29 0.34 0.42 0.49 0.53 0.53 0.47
0.18 0.16 0.11 0.05 0.02 0.01 0.00 0.01 0.01 0.00 0.00 0.00 0.00 0.00 0.00 0.00 0.00 0.00 0.00 0.00 0.00 0.01 0.02 0.05 0.15 0.24 0.25 0.26 0.30 0.37 0.33 0.30 0.28 0.30 0.33 0.35 0.36 0.38 0.36 0.31 0.26 0.24 0.24 0.26 0.31 0.42 0.58 0.57 0.46
0.17 0.14 0.08 0.05 0.03 0.01 0.01 0.01 0.01 0.01 0.01 0.00 0.00 0.00 0.00 0.00 0.00 0.00 0.00 0.00 0.01 0.02 0.02 0.06 0.13 0.20 0.25 0.27 0.30 0.36 0.34 0.33 0.33 0.35 0.36 0.36 0.36 0.37 0.39 0.36 0.32 0.32 0.30 0.28 0.28 0.36 0.55 0.56 0.49
0.17 0.17 0.09 0.04 0.03 0.02 0.01 0.01 0.01 0.01 0.01 0.00 0.00 0.00 0.00 0.00 0.00 0.01 0.01 0.01 0.02 0.03 0.04 0.07 0.13 0.17 0.22 0.25 0.29 0.33 0.33 0.34 0.35 0.36 0.34 0.31 0.31 0.35 0.34 0.30 0.29 0.31 0.33 0.31 0.29 0.30 0.42 0.48 0.47
0.23 0.24 0.11 0.04 0.03 0.02 0.01 0.01 0.01 0.01 0.01 0.01 0.00 0.00 0.00 0.00 0.00 0.01 0.02 0.03 0.05 0.05 0.06 0.08 0.14 0.18 0.21 0.24 0.25 0.28 0.30 0.31 0.32 0.32 0.29 0.28 0.28 0.29 0.28 0.24 0.23 0.27 0.31 0.32 0.33 0.34 0.38 0.41 0.39
0.31 0.23 0.10 0.04 0.02 0.02 0.02 0.02 0.01 0.01 0.01 0.01 0.01 0.00 0.00 0.01 0.02 0.02 0.02 0.03 0.04 0.06 0.07 0.09 0.13 0.17 0.21 0.22 0.25 0.28 0.28 0.26 0.24 0.24 0.25 0.28 0.30 0.31 0.29 0.25 0.23 0.27 0.29 0.32 0.37 0.41 0.39 0.37 0.33
0.28 0.18 0.08 0.05 0.04 0.04 0.03 0.03 0.03 0.03 0.03 0.01 0.01 0.01 0.01 0.02 0.02 0.03 0.03 0.04 0.05 0.06 0.09 0.14 0.19 0.22 0.23 0.25 0.25 0.28 0.29 0.28 0.27 0.26 0.27 0.33 0.36 0.36 0.34 0.32 0.30 0.28 0.27 0.29 0.33 0.39 0.35 0.38 0.51
0.25 0.14 0.07 0.06 0.07 0.08 0.07 0.04 0.04 0.05 0.03 0.01 0.01 0.01 0.01 0.01 0.02 0.03 0.04 0.05 0.06 0.08 0.09 0.13 0.19 0.23 0.26 0.29 0.31 0.28 0.27 0.26 0.26 0.27 0.26 0.29 0.32 0.31 0.30 0.27 0.27 0.28 0.28 0.29 0.30 0.31 0.34 0.37 0.44
0.24 0.18 0.11 0.07 0.08 0.09 0.09 0.06 0.05 0.04 0.02 0.01 0.02 0.01 0.01 0.01 0.02 0.03 0.04 0.06 0.07 0.08 0.09 0.12 0.15 0.19 0.24 0.29 0.33 0.32 0.28 0.26 0.24 0.24 0.23 0.22 0.23 0.24 0.24 0.23 0.22 0.22 0.23 0.25 0.27 0.26 0.27 0.31 0.34
0.24 0.19 0.15 0.11 0.11 0.11 0.10 0.08 0.05 0.03 0.02 0.03 0.02 0.02 0.01 0.01 0.02 0.02 0.03 0.05 0.06 0.08 0.09 0.11 0.13 0.16 0.21 0.23 0.27 0.32 0.34 0.32 0.28 0.25 0.23 0.22 0.21 0.19 0.19 0.18 0.18 0.18 0.18 0.19 0.22 0.23 0.25 0.26 0.28
0.24 0.22 0.17 0.13 0.13 0.13 0.14 0.11 0.05 0.02 0.03 0.03 0.03 0.02 0.01 0.01 0.02 0.02 0.03 0.04 0.05 0.08 0.10 0.11 0.13 0.15 0.18 0.21 0.24 0.27 0.31 0.34 0.31 0.26 0.23 0.22 0.20 0.18 0.17 0.18 0.17 0.16 0.18 0.22 0.28 0.31 0.33 0.33 0.32
0.30 0.32 0.25 0.14 0.11 0.14 0.22 0.16 0.04 0.03 0.03 0.03 0.03 0.03 0.02 0.01 0.01 0.02 0.03 0.04 0.05 0.06 0.09 0.12 0.14 0.15 0.18 0.23 0.27 0.28 0.29 0.31 0.29 0.27 0.27 0.25 0.24 0.23 0.23 0.21 0.20 0.18 0.21 0.26 0.33 0.37 0.38 0.36 0.37
0.42 0.34 0.22 0.14 0.10 0.13 0.21 0.15 0.03 0.03 0.03 0.03 0.03 0.02 0.02 0.01 0.01 0.02 0.03 0.04 0.05 0.06 0.08 0.11 0.14 0.15 0.17 0.24 0.31 0.29 0.30 0.33 0.31 0.30 0.31 0.30 0.31 0.30 0.29 0.26 0.24 0.24 0.26 0.28 0.32 0.34 0.38 0.38 0.40
0.34 0.24 0.16 0.14 0.12 0.11 0.14 0.10 0.03 0.03 0.04 0.03 0.03 0.03 0.02 0.02 0.01 0.01 0.02 0.03 0.05 0.07 0.08 0.10 0.13 0.17 0.18 0.23 0.33 0.35 0.32 0.33 0.34 0.31 0.28 0.30 0.33 0.34 0.34 0.32 0.30 0.30 0.32 0.32 0.34 0.36 0.38 0.39 0.44
0.23 0.22 0.17 0.13 0.12 0.14 0.11 0.07 0.03 0.04 0.05 0.04 0.03 0.03 0.02 0.01 0.01 0.01 0.02 0.02 0.03 0.06 0.09 0.10 0.12 0.18 0.21 0.21 0.26 0.30 0.28 0.29 0.32 0.31 0.28 0.30 0.32 0.33 0.33 0.33 0.33 0.33 0.32 0.33 0.35 0.36 0.36 0.35 0.39
0.29 0.26 0.20 0.14 0.11 0.15 0.13 0.07 0.03 0.03 0.04 0.04 0.03 0.03 0.02 0.02 0.01 0.02 0.03 0.04 0.03 0.04 0.07 0.10 0.11 0.14 0.20 0.20 0.21 0.25 0.26 0.28 0.30 0.31 0.32 0.32 0.32 0.32 0.32 0.32 0.34 0.35 0.34 0.32 0.31 0.34 0.36 0.34 0.34
0.37 0.29 0.20 0.19 0.17 0.16 0.15 0.11 0.04 0.03 0.03 0.03 0.03 0.02 0.02 0.02 0.02 0.03 0.04 0.05 0.05 0.05 0.06 0.09 0.10 0.11 0.17 0.23 0.25 0.30 0.34 0.32 0.34 0.33 0.31 0.32 0.33 0.32 0.33 0.32 0.33 0.34 0.37 0.36 0.31 0.31 0.36 0.37 0.35
0.33 0.21 0.19 0.24 0.33 0.33 0.22 0.20 0.06 0.03 0.04 0.03 0.02 0.02 0.01 0.02 0.01 0.02 0.03 0.04 0.06 0.07 0.08 0.10 0.13 0.12 0.13 0.19 0.28 0.31 0.33 0.30 0.26 0.25 0.28 0.30 0.32 0.32 0.32 0.33 0.34 0.36 0.37 0.38 0.39 0.36 0.36 0.39 0.39
0.23 0.19 0.24 0.30 0.41 0.40 0.25 0.24 0.08 0.03 0.04 0.03 0.01 0.01 0.01 0.01 0.01 0.02 0.01 0.02 0.04 0.06 0.08 0.09 0.14 0.16 0.15 0.15 0.20 0.28 0.32 0.32 0.32 0.32 0.32 0.33 0.35 0.34 0.34 0.33 0.33 0.35 0.36 0.36 0.38 0.40 0.42 0.42 0.42
0.28 0.35 0.45 0.49 0.65 0.66 0.21 0.17 0.09 0.05 0.04 0.02 0.01 0.01 0.02 0.02 0.02 0.03 0.03 0.03 0.03 0.04 0.06 0.10 0.12 0.16 0.16 0.18 0.19 0.25 0.30 0.34 0.38 0.42 0.39 0.35 0.35 0.36 0.35 0.35 0.34 0.35 0.36 0.35 0.37 0.38 0.40 0.41 0.42
0.50 0.78 1.11 1.14 1.02 0.53 0.09 0.10 0.09 0.05 0.04 0.02 0.01 0.01 0.01 0.03 0.03 0.03 0.03 0.05 0.06 0.04 0.05 0.09 0.12 0.15 0.17 0.18 0.21 0.23 0.26 0.30 0.34 0.39 0.40 0.39 0.36 0.38 0.39 0.38 0.37 0.36 0.38 0.40 0.40 0.42 0.42 0.43 0.43
0.46 0.62 0.83 0.80 0.48 0.17 0.06 0.07 0.06 0.05 0.03 0.01 0.01 0.01 0.02 0.03 0.03 0.03 0.03 0.03 0.04 0.04 0.05 0.08 0.10 0.13 0.17 0.19 0.21 0.23 0.26 0.28 0.28 0.33 0.39 0.41 0.38 0.37 0.42 0.45 0.45 0.43 0.44 0.47 0.50 0.51 0.50 0.50 0.49
0.47 0.44 0.38 0.56 0.43 0.26 0.13 0.08 0.05 0.03 0.02 0.02 0.02 0.02 0.03 0.03 0.03 0.03 0.03 0.02 0.03 0.03 0.04 0.06 0.08 0.09 0.12 0.17 0.23 0.25 0.25 0.27 0.26 0.27 0.33 0.38 0.37 0.35 0.38 0.46 0.52 0.56 0.56 0.55 0.58 0.61 0.61 0.62 0.61
0.38 0.45 0.55 0.83 0.76 0.40 0.14 0.07 0.07 0.04 0.03 0.03 0.03 0.04 0.05 0.04 0.04 0.04 0.03 0.03 0.03 0.04 0.04 0.06 0.09 0.10 0.11 0.13 0.18 0.23 0.25 0.26 0.27 0.27 0.29 0.34 0.38 0.39 0.38 0.40 0.47 0.57 0.63 0.63 0.64 0.65 0.67 0.71 0.72
0.36 0.52 0.73 0.81 0.62 0.43 0.23 0.11 0.10 0.07 0.04 0.04 0.04 0.04 0.06 0.07 0.08 0.07 0.05 0.03 0.04 0.05 0.06 0.07 0.11 0.12 0.13 0.14 0.15 0.20 0.26 0.29 0.32 0.35 0.36 0.37 0.41 0.47 0.48 0.45 0.43 0.47 0.55 0.65 0.72 0.72 0.74 0.78 0.78
0.33 0.39 0.54 0.77 0.61 0.36 0.30 0.14 0.08 0.06 0.05 0.04 0.04 0.04 0.06 0.08 0.10 0.09 0.06 0.05 0.06 0.07 0.09 0.11 0.14 0.15 0.16 0.16 0.18 0.19 0.25 0.32 0.37 0.41 0.43 0.46 0.49 0.52 0.55 0.56 0.54 0.48 0.49 0.57 0.65 0.70 0.72 0.76 0.78